Location: Colonia Mina de C?rbuni
(46.1667°N, 22.7167°E)
Time: 05:59:00
(UTC+00:00)

Cosmos 2219 Rocket - Pass Details

Date: 04 February 2023
Orbit: 826 x 848 km, 71.0° (Epoch: 21 March)

Event Time Altitude Azimuth Distance (km) Brightness Sun altitude
Rises 17:47:38 0° 203° (SSW) 3,351 5.6 -22.7°
Reaches altitude 10° 17:50:03 10° 203° (SSW) 2,423 4.8 -23.1°
Maximum altitude 17:55:36 88° 117° (ESE) 836 2.0 -24.1°
Enters shadow 17:57:54 38° 27° (NNE) 1,259 2.8 -24.5°
